| time (UTC) | temp F | wind direction | speed MPH | gust MPH | rain 1hr in | rain 24hr in | rain mn in | humidity % | barometer mb |
| 20260906061004 | 78 | 194 | 0.0 | 4.0 | 0.00 | 0.00 | 0.00 | 88 | 1011.2 |
| 20260906060005 | 78 | 182 | 0.0 | 0.0 | 0.00 | 0.00 | 0.00 | 88 | 1011.5 |
| 20260906054001 | 78 | 184 | 0.0 | 2.0 | 0.00 | 0.00 | 0.00 | 89 | 1011.6 |
| 20260906053001 | 78 | 184 | 0.0 | 0.0 | 0.00 | 0.00 | 0.00 | 89 | 1011.8 |
| 20260906051001 | 78 | 169 | 0.0 | 0.0 | 0.00 | 0.00 | 0.00 | 89 | 1011.9 |
| 20260906050007 | 78 | 169 | 0.0 | 0.0 | 0.00 | 0.00 | 0.00 | 89 | 1011.7 |
| 20260906045004 | 78 | 165 | 0.0 | 0.0 | 0.00 | 0.00 | 0.00 | 89 | 1011.7 |
| 20260906044004 | 78 | 165 | 0.0 | 0.0 | 0.00 | 0.00 | 0.00 | 89 | 1011.7 |
| 20260906043004 | 78 | 165 | 0.0 | 0.0 | 0.00 | 0.00 | 0.00 | 89 | 1011.6 |
| 20260906042004 | 78 | 165 | 0.0 | 0.0 | 0.00 | 0.00 | 0.00 | 88 | 1011.5 |
| 20260906041004 | 78 | 165 | 0.0 | 0.0 | 0.00 | 0.00 | 0.00 | 87 | 1011.7 |
| 20260906040008 | 78 | 165 | 0.0 | 0.0 | 0.00 | 0.00 | 0.00 | 87 | 1011.9 |
| 20260906035006 | 79 | 165 | 0.0 | 0.0 | 0.00 | 0.00 | 0.00 | 87 | 1011.8 |
| 20260906034004 | 79 | 165 | 0.0 | 0.0 | 0.00 | 0.00 | 0.00 | 86 | 1011.9 |
| 20260906033006 | 79 | 165 | 0.0 | 0.0 | 0.00 | 0.00 | 0.00 | 86 | 1012.1 |
| 20260906032004 | 79 | 162 | 0.0 | 0.0 | 0.00 | 0.00 | 0.00 | 86 | 1012.2 |
| 20260906031006 | 79 | 140 | 0.0 | 0.0 | 0.00 | 0.00 | 0.00 | 86 | 1012.2 |
| 20260906030006 | 79 | 139 | 0.0 | 0.0 | 0.00 | 0.00 | 0.00 | 86 | 1012.3 |
| 20260906024004 | 80 | 105 | 1.0 | 4.0 | 0.00 | 0.00 | 0.00 | 86 | 1012.2 |
| 20260906023004 | 80 | 94 | 3.0 | 7.0 | 0.00 | 0.00 | 0.00 | 84 | 1012.4 |
| 20260906021004 | 81 | 106 | 4.0 | 9.0 | 0.00 | 0.00 | 0.00 | 83 | 1012.7 |
| 20260906020007 | 82 | 94 | 4.0 | 10.0 | 0.00 | 0.00 | 0.00 | 82 | 1012.6 |
| 20260906015003 | 82 | 287 | 0.0 | 0.0 | 0.00 | 0.00 | 0.00 | 83 | 1012.4 |
| 20260906014005 | 82 | 287 | 0.0 | 0.0 | 0.00 | 0.00 | 0.00 | 83 | 1012.2 |
| 20260906013003 | 83 | 287 | 0.0 | 0.0 | 0.00 | 0.00 | 0.00 | 81 | 1012.1 |
| 20260906012005 | 83 | 287 | 0.0 | 0.0 | 0.00 | 0.00 | 0.00 | 82 | 1011.9 |
| 20260906011003 | 83 | 287 | 0.0 | 0.0 | 0.00 | 0.00 | 0.00 | 81 | 1011.9 |
| 20260906005003 | 84 | 287 | 0.0 | 0.0 | 0.00 | 0.00 | 0.00 | 80 | 1011.7 |
| 20260906004005 | 84 | 287 | 0.0 | 0.0 | 0.00 | 0.00 | 0.00 | 78 | 1011.8 |
| 20260906003003 | 85 | 287 | 0.0 | 2.0 | 0.00 | 0.00 | 0.00 | 78 | 1011.7 |
| 20260906002005 | 85 | 287 | 0.0 | 1.0 | 0.00 | 0.00 | 0.00 | 77 | 1011.6 |
| 20260906001003 | 85 | 287 | 0.0 | 2.0 | 0.00 | 0.00 | 0.00 | 76 | 1011.5 |
| 20260906000007 | 85 | 286 | 0.0 | 1.0 | 0.00 | 0.00 | 0.00 | 75 | 1011.4 |
| 20260905235003 | 86 | 286 | 1.0 | 3.0 | 0.00 | 0.00 | 0.00 | 74 | 1011.4 |
| 20260905234005 | 86 | 286 | 1.0 | 5.0 | 0.00 | 0.00 | 0.00 | 73 | 1011.2 |
| 20260905233003 | 87 | 285 | 2.0 | 7.0 | 0.00 | 0.00 | 0.00 | 71 | 1011.0 |
| 20260905232005 | 88 | 296 | 2.0 | 7.0 | 0.00 | 0.00 | 0.00 | 71 | 1011.0 |
| 20260905231003 | 88 | 302 | 2.0 | 8.0 | 0.00 | 0.00 | 0.00 | 71 | 1010.8 |
| 20260905230007 | 89 | 311 | 4.0 | 12.0 | 0.00 | 0.00 | 0.00 | 71 | 1011.0 |
| 20260905224005 | 89 | 284 | 4.0 | 9.0 | 0.00 | 0.00 | 0.00 | 68 | 1011.0 |
| 20260905222003 | 90 | 292 | 6.0 | 10.0 | 0.00 | 0.00 | 0.00 | 67 | 1010.8 |
| 20260905220005 | 90 | 273 | 5.0 | 12.0 | 0.00 | 0.00 | 0.00 | 66 | 1010.8 |
| 20260905215005 | 91 | 309 | 5.0 | 11.0 | 0.00 | 0.00 | 0.00 | 66 | 1010.5 |
| 20260905214003 | 91 | 296 | 6.0 | 10.0 | 0.00 | 0.00 | 0.00 | 65 | 1010.5 |
| 20260905213005 | 91 | 310 | 6.0 | 12.0 | 0.00 | 0.00 | 0.00 | 65 | 1010.6 |
| 20260905212002 | 91 | 270 | 6.0 | 10.0 | 0.00 | 0.00 | 0.00 | 65 | 1010.6 |
| 20260905211005 | 91 | 279 | 6.0 | 10.0 | 0.00 | 0.00 | 0.00 | 65 | 1010.4 |
| 20260905210005 | 91 | 284 | 7.0 | 12.0 | 0.00 | 0.00 | 0.00 | 66 | 1010.3 |
| 20260905205004 | 91 | 273 | 5.0 | 11.0 | 0.00 | 0.00 | 0.00 | 65 | 1010.3 |
| 20260905204002 | 91 | 314 | 2.0 | 7.0 | 0.00 | 0.00 | 0.00 | 69 | 1010.6 |
| 20260905203006 | 89 | 55 | 3.0 | 9.0 | 0.00 | 0.00 | 0.00 | 73 | 1010.5 |
| 20260905202002 | 87 | 155 | 2.0 | 8.0 | 0.00 | 0.00 | 0.00 | 76 | 1010.6 |
| 20260905201005 | 90 | 145 | 1.0 | 4.0 | 0.00 | 0.00 | 0.00 | 75 | 1010.8 |
| 20260905200005 | 89 | 119 | 1.0 | 4.0 | 0.00 | 0.00 | 0.00 | 74 | 1010.8 |
| 20260905195002 | 89 | 268 | 0.0 | 2.0 | 0.00 | 0.00 | 0.00 | 74 | 1010.8 |
| 20260905193003 | 90 | 265 | 3.0 | 8.0 | 0.00 | 0.00 | 0.00 | 70 | 1011.0 |
| 20260905192005 | 90 | 290 | 3.0 | 8.0 | 0.00 | 0.00 | 0.00 | 73 | 1011.3 |
| 20260905190007 | 90 | 264 | 2.0 | 6.0 | 0.00 | 0.00 | 0.00 | 71 | 1011.5 |
| 20260905185002 | 89 | 259 | 2.0 | 5.0 | 0.00 | 0.00 | 0.00 | 72 | 1011.7 |
| 20260905184002 | 89 | 200 | 2.0 | 5.0 | 0.00 | 0.00 | 0.00 | 73 | 1012.0 |
| 20260905182003 | 89 | 288 | 2.0 | 5.0 | 0.00 | 0.00 | 0.00 | 73 | 1012.0 |
| 20260905181005 | 88 | 296 | 1.0 | 4.0 | 0.00 | 0.00 | 0.00 | 75 | 1012.0 |
| 20260905180005 | 87 | 286 | 2.0 | 6.0 | 0.00 | 0.00 | 0.00 | 77 | 1012.1 |
| 20260905175003 | 85 | 277 | 2.0 | 5.0 | 0.00 | 0.00 | 0.00 | 81 | 1012.0 |
| 20260905174002 | 85 | 273 | 3.0 | 7.0 | 0.00 | 0.00 | 0.00 | 83 | 1012.2 |
| 20260905173002 | 85 | 300 | 2.0 | 9.0 | 0.00 | 0.00 | 0.00 | 80 | 1012.5 |
| 20260905172008 | 85 | 327 | 5.0 | 11.0 | 0.00 | 0.00 | 0.00 | 76 | 1012.6 |
| 20260905171003 | 87 | 288 | 7.0 | 12.0 | 0.00 | 0.00 | 0.00 | 72 | 1012.7 |
| 20260905170007 | 89 | 314 | 8.0 | 15.0 | 0.00 | 0.00 | 0.00 | 69 | 1012.8 |
| 20260905165002 | 91 | 306 | 5.0 | 15.0 | 0.00 | 0.00 | 0.00 | 71 | 1013.2 |
| 20260905164004 | 91 | 244 | 4.0 | 9.0 | 0.00 | 0.00 | 0.00 | 67 | 1013.0 |
| 20260905163002 | 91 | 201 | 4.0 | 7.0 | 0.00 | 0.00 | 0.00 | 67 | 1013.0 |
| 20260905162005 | 91 | 273 | 4.0 | 9.0 | 0.00 | 0.00 | 0.00 | 69 | 1013.1 |
| 20260905161002 | 90 | 269 | 3.0 | 8.0 | 0.00 | 0.00 | 0.00 | 69 | 1013.1 |
| 20260905160007 | 90 | 236 | 2.0 | 8.0 | 0.00 | 0.00 | 0.00 | 69 | 1013.1 |
| 20260905155002 | 89 | 269 | 1.0 | 6.0 | 0.00 | 0.00 | 0.00 | 70 | 1013.3 |
| 20260905154004 | 89 | 258 | 2.0 | 7.0 | 0.00 | 0.00 | 0.00 | 69 | 1013.4 |
| 20260905153002 | 89 | 196 | 2.0 | 7.0 | 0.00 | 0.00 | 0.00 | 71 | 1013.4 |
| 20260905151002 | 88 | 202 | 2.0 | 5.0 | 0.00 | 0.00 | 0.00 | 74 | 1013.4 |
| 20260905150006 | 88 | 221 | 3.0 | 8.0 | 0.00 | 0.00 | 0.00 | 75 | 1013.5 |
| 20260905144002 | 88 | 192 | 1.0 | 4.0 | 0.00 | 0.00 | 0.00 | 77 | 1013.5 |
| 20260905143003 | 87 | 198 | 1.0 | 4.0 | 0.00 | 0.00 | 0.00 | 78 | 1013.5 |
| 20260905142212 | 86 | 200 | 0.0 | 3.0 | 0.00 | 0.00 | 0.00 | 79 | 1013.6 |
| 20260905140006 | 86 | 198 | 1.0 | 5.0 | 0.00 | 0.00 | 0.00 | 81 | 1013.3 |
| 20260905135002 | 85 | 190 | 0.0 | 2.0 | 0.00 | 0.00 | 0.00 | 82 | 1013.3 |
| 20260905130007 | 83 | 161 | 0.0 | 0.0 | 0.00 | 0.00 | 0.00 | 87 | 1013.4 |
| 20260905124004 | 81 | 161 | 0.0 | 0.0 | 0.00 | 0.00 | 0.00 | 89 | 1013.3 |
| 20260905123002 | 80 | 114 | 0.0 | 0.0 | 0.00 | 0.00 | 0.00 | 94 | 1013.4 |
| 20260905122004 | 78 | 114 | 0.0 | 0.0 | 0.00 | 0.00 | 0.00 | 95 | 1013.3 |
| 20260905121002 | 77 | 114 | 0.0 | 0.0 | 0.00 | 0.00 | 0.00 | 95 | 1013.2 |
| 20260905115002 | 77 | 114 | 0.0 | 0.0 | 0.00 | 0.00 | 0.00 | 95 | 1013.1 |
| 20260905114004 | 76 | 114 | 0.0 | 0.0 | 0.00 | 0.00 | 0.00 | 94 | 1012.8 |
| 20260905113002 | 76 | 114 | 0.0 | 0.0 | 0.00 | 0.00 | 0.00 | 94 | 1012.8 |
| 20260905110006 | 76 | 114 | 0.0 | 0.0 | 0.00 | 0.00 | 0.00 | 94 | 1012.6 |
| 20260905105002 | 76 | 114 | 0.0 | 0.0 | 0.00 | 0.00 | 0.00 | 94 | 1012.6 |
| 20260905104004 | 76 | 114 | 0.0 | 0.0 | 0.00 | 0.00 | 0.00 | 94 | 1012.4 |
| 20260905103002 | 77 | 114 | 0.0 | 0.0 | 0.00 | 0.00 | 0.00 | 94 | 1012.4 |
| 20260905102004 | 77 | 114 | 0.0 | 0.0 | 0.00 | 0.00 | 0.00 | 93 | 1012.5 |
| 20260905101002 | 77 | 114 | 0.0 | 0.0 | 0.00 | 0.00 | 0.00 | 93 | 1012.3 |
| 20260905100005 | 77 | 114 | 0.0 | 0.0 | 0.00 | 0.00 | 0.00 | 93 | 1012.3 |
| 20260905095001 | 77 | 114 | 0.0 | 0.0 | 0.00 | 0.00 | 0.00 | 93 | 1012.2 |
| 20260905094003 | 77 | 114 | 0.0 | 0.0 | 0.00 | 0.00 | 0.00 | 93 | 1012.0 |
| 20260905093001 | 77 | 114 | 0.0 | 0.0 | 0.00 | 0.00 | 0.00 | 93 | 1012.1 |
| 20260905092003 | 77 | 114 | 0.0 | 0.0 | 0.00 | 0.00 | 0.00 | 93 | 1012.2 |
| 20260905091002 | 77 | 114 | 0.0 | 0.0 | 0.00 | 0.00 | 0.00 | 93 | 1012.1 |
| 20260905090005 | 78 | 114 | 0.0 | 0.0 | 0.00 | 0.00 | 0.00 | 93 | 1012.0 |
| 20260905085001 | 78 | 114 | 0.0 | 0.0 | 0.00 | 0.00 | 0.00 | 92 | 1012.1 |
| 20260905084003 | 78 | 114 | 0.0 | 0.0 | 0.00 | 0.00 | 0.00 | 92 | 1012.1 |
| 20260905082003 | 78 | 114 | 0.0 | 0.0 | 0.00 | 0.00 | 0.00 | 93 | 1012.2 |
| 20260905081001 | 78 | 114 | 0.0 | 0.0 | 0.00 | 0.00 | 0.00 | 93 | 1012.1 |
| 20260905080005 | 78 | 114 | 0.0 | 3.0 | 0.00 | 0.00 | 0.00 | 93 | 1012.0 |
| 20260905074003 | 78 | 114 | 0.0 | 3.0 | 0.00 | 0.00 | 0.00 | 94 | 1012.1 |
| 20260905072003 | 78 | 115 | 0.0 | 0.0 | 0.00 | 0.00 | 0.00 | 94 | 1012.2 |
| 20260905071001 | 78 | 115 | 0.0 | 3.0 | 0.00 | 0.00 | 0.00 | 94 | 1012.2 |
| 20260905070005 | 78 | 113 | 0.0 | 0.0 | 0.00 | 0.00 | 0.00 | 94 | 1012.2 |
| 20260905065001 | 78 | 113 | 0.0 | 0.0 | 0.00 | 0.00 | 0.00 | 94 | 1012.4 |
| 20260905064001 | 78 | 114 | 1.0 | 3.0 | 0.00 | 0.00 | 0.00 | 94 | 1012.5 |
| 20260905063003 | 78 | 115 | 0.0 | 0.0 | 0.00 | 0.00 | 0.00 | 94 | 1012.5 |